Glasgow, United Kingdom

2:22 PM BST on July 23, 2017 (GMT +0100)
Glasgow

Weather History for EGPF - December, 2012

Change the Weather History Date:

Sunday, December 16, 2012

  Actual Average Record
Temperature  
Mean Temperature 44 °F -  
Max Temperature 46 °F 43 °F 55 °F (2015)
Min Temperature 41 °F 33 °F 23 °F (2011)
Degree Days  
Heating Degree Days 22    
Moisture  
Dew Point 41 °F    
Average Humidity 87    
Maximum Humidity 93    
Minimum Humidity 81    
Precipitation  
Precipitation 0.00 in - - ()
Sea Level Pressure  
Sea Level Pressure 29.29 in    
Wind  
Wind Speed 8 mph ()    
Max Wind Speed 14 mph    
Max Gust Speed -    
Visibility 6.2 miles    
Events Rain    
Averages and records for this station are not official NWS values.
T = Trace of Precipitation, MM = Missing Value Source: Averaged Metar Reports

Daily Weather History Graph

Daily Weather History Graph

Search for Another Location

Airport or City:

Trip Planner

Search our weather history database for the weather conditions in past years. The results will help you decide how hot, cold, wet, or windy it might be!

Date:

Astronomy

Dec. 16, 2012 Rise Set
Actual Time 8:43 AM GMT 3:43 PM GMT
Civil Twilight 7:56 AM GMT 4:30 PM GMT
Nautical Twilight 7:07 AM GMT 5:19 PM GMT
Astronomical Twilight 6:21 AM GMT 6:05 PM GMT
Moon 10:36 AM GMT (12/16) 8:17 PM GMT (12/16)
Length of Visible Light 8h 34m
Length of Day
7h 00m
Waxing Crescent, 14% of the Moon is Illuminated
Dec 16
Waxing Crescent
Dec 20
First Quarter
Dec 28
Full
Jan 5
Last Quarter
Jan 11
New

Hourly Weather History & Observations

Time (GMT) Temp. Windchill Dew Point Humidity Pressure Visibility Wind Dir Wind Speed Gust Speed Precip Events Conditions
12:20 AM 44.6 °F 39.7 °F 42.8 °F 93% 29.21 in 6.2 mi SSW 9.2 mph - N/A   Mostly Cloudy
12:50 AM 44.6 °F 39.2 °F 41.0 °F 87% 29.21 in 6.2 mi SSW 10.4 mph - N/A   Mostly Cloudy
1:20 AM 44.6 °F 39.2 °F 41.0 °F 87% 29.21 in 6.2 mi South 10.4 mph - N/A   Overcast
1:50 AM 44.6 °F 38.4 °F 41.0 °F 87% 29.21 in 6.2 mi SSW 12.7 mph - N/A   Overcast
2:20 AM 44.6 °F 40.2 °F 41.0 °F 87% 29.24 in 6.2 mi South 8.1 mph - N/A   Mostly Cloudy
2:50 AM 44.6 °F 39.7 °F 41.0 °F 87% 29.24 in 6.2 mi South 9.2 mph - N/A   Overcast
3:20 AM 44.6 °F 39.2 °F 41.0 °F 87% 29.24 in 6.2 mi South 10.4 mph - N/A   Overcast
3:50 AM 44.6 °F 39.7 °F 41.0 °F 87% 29.24 in 6.2 mi SSW 9.2 mph - N/A Rain Rain
4:20 AM 44.6 °F 39.2 °F 41.0 °F 87% 29.24 in 6.2 mi SSW 10.4 mph - N/A Rain Light Rain
4:50 AM 44.6 °F 39.2 °F 41.0 °F 87% 29.24 in 6.2 mi SSW 10.4 mph - N/A   Mostly Cloudy
5:20 AM 44.6 °F 38.1 °F 41.0 °F 87% 29.27 in 6.2 mi SSW 13.8 mph - N/A   Partly Cloudy
5:50 AM 44.6 °F 40.2 °F 41.0 °F 87% 29.27 in 6.2 mi South 8.1 mph - N/A   Scattered Clouds
6:20 AM 44.6 °F 40.7 °F 41.0 °F 87% 29.27 in 6.2 mi South 6.9 mph - N/A   Mostly Cloudy
6:50 AM 44.6 °F 40.2 °F 41.0 °F 87% 29.27 in 6.2 mi South 8.1 mph - N/A   Mostly Cloudy
7:20 AM 44.6 °F 41.4 °F 41.0 °F 87% 29.30 in 6.2 mi SSE 5.8 mph - N/A   Mostly Cloudy
7:50 AM 44.6 °F 40.2 °F 41.0 °F 87% 29.30 in 6.2 mi South 8.1 mph - N/A   Mostly Cloudy
8:20 AM 44.6 °F 40.2 °F 41.0 °F 87% 29.30 in 5.6 mi SSE 8.1 mph - N/A   Overcast
8:50 AM 44.6 °F 39.7 °F 41.0 °F 87% 29.30 in 5.6 mi South 9.2 mph - N/A   Mostly Cloudy
9:20 AM 44.6 °F 39.7 °F 41.0 °F 87% 29.33 in 6.2 mi South 9.2 mph - N/A   Mostly Cloudy
9:50 AM 44.6 °F 40.2 °F 41.0 °F 87% 29.33 in 6.2 mi SSE 8.1 mph - N/A   Mostly Cloudy
10:20 AM 44.6 °F 42.2 °F 41.0 °F 87% 29.33 in 6.2 mi SE 4.6 mph - N/A   Mostly Cloudy
10:50 AM 46.4 °F 42.9 °F 41.0 °F 81% 29.33 in 6.2 mi SSW 6.9 mph - N/A   Mostly Cloudy
11:20 AM 46.4 °F 41.9 °F 41.0 °F 81% 29.33 in 6.2 mi SSW 9.2 mph - N/A   Mostly Cloudy
11:50 AM 46.4 °F 42.4 °F 41.0 °F 81% 29.33 in 6.2 mi South 8.1 mph - N/A   Mostly Cloudy
12:20 PM 46.4 °F 42.9 °F 41.0 °F 81% 29.33 in 6.2 mi SSE 6.9 mph - N/A   Mostly Cloudy
12:50 PM 46.4 °F 43.5 °F 41.0 °F 81% 29.33 in 6.2 mi South 5.8 mph - N/A   Mostly Cloudy
1:20 PM 46.4 °F 44.3 °F 42.8 °F 87% 29.33 in 6.2 mi East 4.6 mph - N/A   Mostly Cloudy
1:50 PM 46.4 °F 42.4 °F 41.0 °F 81% 29.33 in 6.2 mi SSE 8.1 mph - N/A   Mostly Cloudy
2:20 PM 46.4 °F 44.3 °F 42.8 °F 87% 29.30 in 6.2 mi SSE 4.6 mph - N/A   Mostly Cloudy
2:50 PM 46.4 °F 43.5 °F 41.0 °F 81% 29.30 in 6.2 mi ESE 5.8 mph - N/A   Scattered Clouds
3:20 PM 44.6 °F 41.4 °F 41.0 °F 87% 29.30 in 6.2 mi SE 5.8 mph - N/A   Scattered Clouds
3:50 PM 44.6 °F 41.4 °F 39.2 °F 81% 29.30 in 6.2 mi ESE 5.8 mph - N/A   Scattered Clouds
4:20 PM 42.8 °F 38.6 °F 39.2 °F 87% 29.30 in 6.2 mi ESE 6.9 mph - N/A   Partly Cloudy
4:50 PM 44.6 °F 40.2 °F 39.2 °F 81% 29.30 in 6.2 mi East 8.1 mph - N/A   Scattered Clouds
5:20 PM 42.8 °F 38.6 °F 39.2 °F 87% 29.33 in 6.2 mi East 6.9 mph - N/A   Mostly Cloudy
5:50 PM 42.8 °F 38.0 °F 39.2 °F 87% 29.33 in 6.2 mi East 8.1 mph - N/A   Scattered Clouds
6:20 PM 41.0 °F 36.4 °F 39.2 °F 93% 29.30 in 6.2 mi ENE 6.9 mph - N/A   Scattered Clouds
6:50 PM 41.0 °F 36.4 °F 39.2 °F 93% 29.30 in 6.2 mi East 6.9 mph - N/A   Scattered Clouds
7:20 PM 41.0 °F 35.8 °F 39.2 °F 93% 29.30 in 6.2 mi East 8.1 mph - N/A   Scattered Clouds
7:50 PM 42.8 °F 38.0 °F 39.2 °F 87% 29.30 in 6.2 mi East 8.1 mph - N/A   Scattered Clouds
8:20 PM 44.6 °F 40.2 °F 41.0 °F 87% 29.30 in 6.2 mi ESE 8.1 mph - N/A   Scattered Clouds
8:50 PM 44.6 °F 39.2 °F 41.0 °F 87% 29.30 in 6.2 mi East 10.4 mph - N/A   Mostly Cloudy
9:20 PM 44.6 °F 40.2 °F 41.0 °F 87% 29.30 in 6.2 mi East 8.1 mph - N/A   Mostly Cloudy
9:50 PM 42.8 °F 38.0 °F 39.2 °F 87% 29.33 in 6.2 mi ENE 8.1 mph - N/A   Mostly Cloudy
10:20 PM 42.8 °F 38.0 °F 39.2 °F 87% 29.33 in 6.2 mi ENE 8.1 mph - N/A   Mostly Cloudy
10:50 PM 42.8 °F 38.0 °F 39.2 °F 87% 29.33 in 6.2 mi ENE 8.1 mph - N/A   Mostly Cloudy
11:20 PM 41.0 °F 36.4 °F 39.2 °F 93% 29.30 in 6.2 mi ENE 6.9 mph - N/A   Mostly Cloudy
11:50 PM 41.0 °F 35.8 °F 37.4 °F 87% 29.30 in 6.2 mi ENE 8.1 mph - N/A   Scattered Clouds